"Pseudo-MPEC" for ZTF0Dnl

Created 2020 Aug 4 23:07:15 UT using Find_Orb

Click here for an explanation of pseudo-MPECs

 
 Astrometry: 
     ZTF0Dnl  C2020 07 29.42611100 53 24.33 +29 48 19.8    ~7TM7 17.12gUNEOCPI41
     ZTF0Dnl  C2020 07 29.42645800 53 28.29 +29 47 25.5    ~7TM7 17.12gUNEOCPI41
     ZTF0Dnl  C2020 07 29.42755800 53 41.31 +29 44 29.4    ~7TM7 17.26gUNEOCPI41
     ZTF0Dnl  C2020 07 29.42790500 53 45.35 +29 43 34.6    ~7TM7 17.26gUNEOCPI41

Station data:
(I41) Palomar Mountain--ZTF  (N33.357340 W116.859780)  US/California. 1.2-m
   f/2.44 Oschin Schmidt + CCD.

Orbital elements:  ZTF0Dnl
   Perigee 2020 Jul 29.468537 +/- 31.4 TT = 11:14:41 (JD 2459059.968537)
Epoch 2020 Jul 29.0 TT = JDT 2459059.5                        AutoNEOCP
q183776.667 +/- 4.11e+7             (J2000 equator)
H   28.8  G 0.15                    Peri.  141.77800 +/- 56
                                    Node   221.81694 +/- 25
e   1.9222171 +/- 0.216             Incl.   49.64112 +/- 37
From 4 observations 2020 July 29 (2.6 min); mean residual 0".50
Residuals in arcseconds: 
200729 I41  .67+  .37-    200729 I41  .33+  .35-    
200729 I41  .91-  .54+    200729 I41  .10-  .18+    

Ephemerides (geocentric):
Date (UTC) HH   RA              Dec         delta   r     elong  mag " sig PA
---- -- -- --  -------------   -----------  ------ ------ -----  --- ---- ---
2020 08 04 23  06 29 53.039   -43 52 29.56  .00681 1.0121  70.0 22.1  33d  10
2020 08 05 00  06 30 21.093   -43 54 41.85  .00685 1.0121  69.9 22.2  33d  10
2020 08 05 01  06 30 48.878   -43 56 52.11  .00689 1.0121  69.9 22.2  33d  10
2020 08 05 02  06 31 16.400   -43 59 00.39  .00693 1.0120  69.9 22.2  33d  10
2020 08 05 03  06 31 43.661   -44 01 06.72  .00697 1.0120  69.9 22.2  33d  10
2020 08 05 04  06 32 10.665   -44 03 11.15  .00701 1.0120  69.9 22.2  33d  10
2020 08 05 05  06 32 37.417   -44 05 13.71  .00704 1.0120  69.9 22.2  33d  10
2020 08 05 06  06 33 03.920   -44 07 14.43  .00708 1.0120  69.8 22.2  33d  10
2020 08 05 07  06 33 30.178   -44 09 13.35  .00712 1.0119  69.8 22.2  33d  11
2020 08 05 08  06 33 56.195   -44 11 10.51  .00716 1.0119  69.8 22.3  33d  11
2020 08 05 09  06 34 21.973   -44 13 05.94  .00720 1.0119  69.8 22.3  33d  11
2020 08 05 10  06 34 47.517   -44 14 59.67  .00724 1.0119  69.8 22.3  33d  11
2020 08 05 11  06 35 12.830   -44 16 51.73  .00727 1.0119  69.8 22.3  33d  11
2020 08 05 12  06 35 37.915   -44 18 42.16  .00731 1.0118  69.8 22.3  33d  11
2020 08 05 13  06 36 02.775   -44 20 30.98  .00735 1.0118  69.7 22.3  33d  11
2020 08 05 14  06 36 27.414   -44 22 18.23  .00739 1.0118  69.7 22.3  32d  11
2020 08 05 15  06 36 51.836   -44 24 03.93  .00743 1.0118  69.7 22.3  32d  11
2020 08 05 16  06 37 16.042   -44 25 48.11  .00747 1.0118  69.7 22.4  32d  11
2020 08 05 17  06 37 40.036   -44 27 30.80  .00750 1.0117  69.7 22.4  32d  11
2020 08 05 18  06 38 03.821   -44 29 12.02  .00754 1.0117  69.7 22.4  32d  11
2020 08 05 19  06 38 27.400   -44 30 51.81  .00758 1.0117  69.7 22.4  32d  11
2020 08 05 20  06 38 50.776   -44 32 30.19  .00762 1.0117  69.6 22.4  32d  11
2020 08 05 21  06 39 13.952   -44 34 07.18  .00766 1.0116  69.6 22.4  32d  11
2020 08 05 22  06 39 36.930   -44 35 42.81  .00769 1.0116  69.6 22.4  32d  11
2020 08 05 23  06 39 59.713   -44 37 17.10  .00773 1.0116  69.6 22.4  32d  11
2020 08 06 00  06 40 22.304   -44 38 50.07  .00777 1.0116  69.6 22.4  32d  11
2020 08 06 01  06 40 44.706   -44 40 21.75  .00781 1.0116  69.6 22.5  32d  11
2020 08 06 02  06 41 06.920   -44 41 52.17  .00785 1.0115  69.6 22.5  32d  11
2020 08 06 03  06 41 28.950   -44 43 21.33  .00788 1.0115  69.6 22.5  32d  11
2020 08 06 04  06 41 50.799   -44 44 49.27  .00792 1.0115  69.5 22.5  32d  11
2020 08 06 05  06 42 12.467   -44 46 16.00  .00796 1.0115  69.5 22.5  32d  11
2020 08 06 06  06 42 33.958   -44 47 41.55  .00800 1.0115  69.5 22.5  32d  11
2020 08 06 07  06 42 55.275   -44 49 05.93  .00804 1.0114  69.5 22.5  32d  11
2020 08 06 08  06 43 16.419   -44 50 29.17  .00808 1.0114  69.5 22.5  32d  11
2020 08 06 09  06 43 37.393   -44 51 51.28  .00811 1.0114  69.5 22.5  32d  11
2020 08 06 10  06 43 58.199   -44 53 12.29  .00815 1.0114  69.5 22.6  32d  11
2020 08 06 11  06 44 18.840   -44 54 32.20  .00819 1.0114  69.5 22.6  32d  11
2020 08 06 12  06 44 39.317   -44 55 51.05  .00823 1.0113  69.4 22.6  32d  11
2020 08 06 13  06 44 59.632   -44 57 08.84  .00826 1.0113  69.4 22.6  32d  11
2020 08 06 14  06 45 19.788   -44 58 25.59  .00830 1.0113  69.4 22.6  32d  11
2020 08 06 15  06 45 39.786   -44 59 41.33  .00834 1.0113  69.4 22.6  32d  11
2020 08 06 16  06 45 59.630   -45 00 56.06  .00838 1.0113  69.4 22.6  32d  11
2020 08 06 17  06 46 19.320   -45 02 09.81  .00842 1.0112  69.4 22.6  32d  11
2020 08 06 18  06 46 38.858   -45 03 22.58  .00845 1.0112  69.4 22.6  32d  11
2020 08 06 19  06 46 58.247   -45 04 34.40  .00849 1.0112  69.4 22.6  32d  11
2020 08 06 20  06 47 17.489   -45 05 45.28  .00853 1.0112  69.4 22.7  32d  11
2020 08 06 21  06 47 36.585   -45 06 55.23  .00857 1.0112  69.3 22.7  32d  11
2020 08 06 22  06 47 55.537   -45 08 04.27  .00861 1.0111  69.3 22.7  32d  11